Preview of NWS' New Version of Forecast
This preview is not operational and should not be used for support decisions.

Regional Weather Roundup (RWR)

Issued by Gray - Portland, ME (GYX)

                            
000
ASUS41 KGYX 180205
RWRGYX
WEATHER ROUNDUP FOR MAINE AND NEW HAMPSHIRE
NATIONAL WEATHER SERVICE GRAY ME
900 PM EST SUN FEB 17 2019

MEZ002-005-006-010-012-015-018-020-021-024-026-027-029-180300-
MAINE
  
CITY           SKY/WX    TMP DP  RH WIND       PRES   REMARKS
PORTLAND       FAIR      27  18  69 CALM      30.06F                  
SANFORD        FAIR      24  19  81 CALM      30.05F                  
BAR HARBOR     FAIR      21   6  52 NW3       30.08R                  
WISCASSET      FAIR      21  16  81 CALM      30.08S                  
FRYEBURG       FAIR      17   5  59 CALM      30.04S                  
LEWISTONAUBURN FAIR      20  11  68 N3        30.06S                  
AUGUSTA        FAIR      22   4  46 NW5       30.06R                  
WATERVILLE     FAIR      19   5  54 N6        30.04R                  
BANGOR         FAIR      20   2  45 NW3       30.08R                  
GREENVILLE       N/A     10  -5  50 NW10      29.95R WCI  -4          
MILLINOCKET    FAIR      14   0  53 W5        30.05R                  
HOULTON        NOT AVBL                                               
PRESQUE ISLE   FAIR      -5  -9  83 CALM      30.02F                  
FRENCHVILLE    FAIR       5  -5  63 N7        29.96F                  
CARIBOU        FAIR       4  -5  66 NW6       30.00S                  
$$

NHZ002-005-008-009-011-012-014-180300-
NEW HAMPSHIRE
  
CITY           SKY/WX    TMP DP  RH WIND       PRES   REMARKS
PORTSMOUTH     MOCLDY    27  18  69 CALM      30.04F                  
ROCHESTER      FAIR      25  15  66 CALM      30.03F                  
NASHUA         CLOUDY    28  19  69 SE3       30.04F                  
MANCHESTER     CLOUDY    29  13  51 SE3       30.02F                  
CONCORD        MOCLDY    24  11  57 E3        30.03F                  
LACONIA        MOCLDY    20  10  65 CALM      30.01F                  
PLYMOUTH       CLOUDY    20   8  57 CALM      30.01F                  
BERLIN         FAIR       6   3  87 CALM      30.00R                  
WHITEFIELD     FAIR      14   6  70 CALM      29.99F                  
JAFFREY        CLOUDY    27  12  53 CALM      29.97F                  
KEENE          CLOUDY    28  14  55 CALM      29.99F                  
LEBANON        FAIR      24   5  44 N5        30.00F                  
MT WASHINGTON  NOT AVBL                                               
$$

VTZ005-007-008-180300-
VERMONT
  
CITY           SKY/WX    TMP DP  RH WIND       PRES   REMARKS
ST JOHNSBURY     N/A     14   5  67 MISG      30.01F                  
MONTPELIER     MOCLDY    15   6  67 NW3       30.01F                  
BURLINGTON     FAIR      13   2  61 NW5       30.05F                  
$$

MAZ007-012-024-CTZ003-RIZ002-NYZ038-NYZ072-180300-
SOUTHERN NEW ENGLAND AND NY
  
CITY           SKY/WX    TMP DP  RH WIND       PRES   REMARKS
BOSTON         CLOUDY    32  20  61 S10       30.05F                  
WORCESTER      CLOUDY    28  15  58 CALM      29.96F                  
NANTUCKET      MOCLDY    26  21  81 S3        30.08R                  
PROVIDENCE     CLOUDY    31  19  61 SE5       30.04F                  
HARTFORD       CLOUDY    33  15  47 S9        30.02S                  
ALBANY         CLOUDY    26   7  44 N3        30.01F                  
NEW YORK CITY  CLOUDY    36  20  52 VRB5      29.98F                  
$$

ANZ081-ANZ082-ANZ150-NHZ014-MEZ023>029-180300-
COASTAL MARINE OBSERVATIONS
  
STATION/POSITION TIME  TEMP    WIND        PRES    WAVE
                       AIR SEA DIR/SP/G            HT/PER
                 (UTC) (F)     (DEG/KT/KT) (MB)    (FT/S)
MOUNT DESERT ROC 0100   28     300/  5/  7 1017.8F
MATINICUS ROCK   0100   27     260/  2/  3 1017.3F
ISLE OF SHOALS   0100   31     150/  7/  8 1017.7F
JEFFREYS LEDGE   0108      40                N/A     2/ 9
CASHES LEDGE BUO 0150   27 39              1018.7R   2/10
$$

.............KEY..............
   WCI - WIND CHILL
   TC  - TEMPERATURE IN CELSIUS
   VSB - VISIBILITY IN MILES
   HX  - HEAT INDEX
   FAIR- INDICATES FEW OR NO CLOUDS BELOW 12,000 FT, WITH NO 
         SIGNIFICANT WEATHER AND/OR OBSTRUCTIONS TO VISIBILITY.